Regional Weather Roundup
Issued by NWS

Home | Current Version | Previous Version | Graphics & Text | Print | Product List | Glossary On
Versions: 1 2 3 4 5 6 7 8 9 10 11 12 13 14 15 16 17 18 19 20 21 22 23 24 25 26 27 28 29 30 31 32 33 34 35 36 37 38 39 40 41 42 43 44 45 46 47 48 49 50
000
ASUS43 KOAX 262302
RWRNE

WEATHER ROUNDUP FOR NEBRASKA
NATIONAL WEATHER SERVICE OMAHA NE
600 PM CDT THU MAY 26 2016

NOTES: SATELLITE DATA IS BEING USED TO AUGMENT CLOUD COVER ABOVE
       12000 FEET.
       "FAIR" INDICATES FEW OR NO CLOUDS BELOW 12,000 FEET WITH NO
       SIGNIFICANT WEATHER AND/OR OBSTRUCTIONS TO VISIBILITY.

  * THESE STATIONS DO NOT REPORT WEATHER SUCH AS RAIN...SNOW OR FOG.

NEZ001>004-019>022-054>056-270000-
NEBRASKA PANHANDLE

CITY           SKY/WX    TMP DP  RH WIND       PRES   REMARKS
SCOTTSBLUFF    CLOUDY    66  39  37 W12G17    29.86F
ALLIANCE       CLOUDY    63  41  44 NW21G33   29.85S
CHADRON        CLOUDY    63  50  62 SW5       29.83F
SIDNEY         CLOUDY    61  42  49 NW18G29   29.86S
$$

NEZ057>060-069>072-079>082-270000-
SOUTHWEST NEBRASKA

CITY           SKY/WX    TMP DP  RH WIND       PRES   REMARKS
NORTH PLATTE   MOSUNNY   75  46  35 E14       29.75F
IMPERIAL       CLOUDY    72  43  35 E14G25    29.77R
LEXINGTON      CLOUDY    72  56  56 NE16      29.74S
MCCOOK         PTSUNNY   74  57  55 E24       29.69F THUNDER
$$

NEZ005>010-023>029-035>040-094-270000-
NORTH CENTRAL NEBRASKA

CITY           SKY/WX    TMP DP  RH WIND       PRES   REMARKS
VALENTINE      MOSUNNY   80  46  30 N5        29.77R
AINSWORTH      SUNNY     75  49  39 SE3       29.77F
BROKEN BOW     CLOUDY    76  44  32 E18       29.75F
ORD            CLOUDY    74  49  41 NE8       29.75F
$$

NEZ041-046>049-061>064-073>077-083>087-270000-
SOUTH CENTRAL NEBRASKA

CITY           SKY/WX    TMP DP  RH WIND       PRES   REMARKS
GRAND ISLAND   LGT RAIN  71  57  61 E22       29.76F
AURORA         RAIN      69  63  81 E13       29.82R
HASTINGS       TSTM      61  57  87 E17G25    29.75R FOG
KEARNEY *      CLOUDY    72  57  60 E16       29.75S
YORK           LGT RAIN  68  64  88 SE9       29.81R
$$

NEZ011>018-030>034-042>045-270000-
NORTHEAST NEBRASKA

CITY           SKY/WX    TMP DP  RH WIND       PRES   REMARKS
NORFOLK        CLOUDY    73  56  54 E9        29.79R
ALBION         CLOUDY    74  50  43 E8        29.79R
BLAIR          CLOUDY    67  58  72 S12G33    29.78R
FREMONT        CLOUDY    67  57  72 SE21G32   29.80R
TEKAMAH        CLOUDY    71  61  70 SE26G40   29.79R
$$

NEZ050>053-065>068-078-088>093-270000-
SOUTHEAST NEBRASKA

CITY           SKY/WX    TMP DP  RH WIND       PRES   REMARKS
LINCOLN        LGT RAIN  65  60  84 SE29G39   29.83R
OMAHA EPPLEY   TSTM      67  59  75 SE39G49   29.82F
BEATRICE       CLOUDY    62  59  88 E12       29.82F
FALLS CITY     LGT RAIN  65  64  97 N8        29.74F
NEBRASKA CITY  RAIN      61  61 100 NE23G33   29.88F
$$

NEZ044-045-051>053-067-270000-
OMAHA AREA

CITY           SKY/WX    TMP DP  RH WIND       PRES   REMARKS
OMAHA EPPLEY   TSTM      67  59  75 SE39G49   29.82F
BLAIR          CLOUDY    67  58  72 S12G33    29.78R
FREMONT        CLOUDY    67  57  72 SE21G32   29.80R
OFFUTT AFB     TSTM      64  61  88 E25G32    29.85F
WAHOO          FAIR      66  58  75 SE22      29.80R
$$




USA.gov is the U.S. government's official web portal to all federal, state and local government web resources and services.